User: anonymous   Login
Location: Charleston
(38.3500°N, 81.6330°W)
Time: 07:32:59
(UTC-04:00)
Language:

Cosmos 1812 Rocket - Orbit

View from above orbital plane
View from above orbital plane
View from above satellite
View from above satellite

Ground track
Ground track

The orbit data is extracted from the following two-line orbital elements,

1 17296U 87003B   15115.18136578  .00000724  00000-0  86195-4 0  9991
2 17296 082.5326 037.9159 0017677 286.6611 073.2662 14.82944059526910
Epoch (UTC): 25 April 2015 04:21:10
Eccentricity: 0.0017677
inclination: 82.5326°
perigee height: 607 km
apogee height: 632 km
right ascension of ascending node: 37.9159°
argument of perigee: 286.6611°
revolutions per day: 14.82944059
mean anomaly at epoch: 73.2662°
orbit number at epoch: 52691

The dashed part of the orbit path shows where the satellite is in the earth's shadow,  

DLR